Location: Newark
(54.0500°N, 12.8333°E)
Time: 13:29:32
(UTC+00:00)

Transit 4A - Visible Passes

Search period start: 24 January 2020 00:00
Search period end: 03 February 2020 00:00
Orbit: 871 x 973 km, 66.8° (Epoch: 23 January)

Date Brightness Start Highest point End Pass type
(mag) Time Alt. Az. Time Alt. Az. Time Alt. Az.
24 Jan 11.1 04:18:33 10° ESE 04:19:40 11° E 04:20:47 10° E visible
24 Jan 8.9 05:58:57 10° SSW 06:04:43 50° ESE 06:10:23 10° NE visible
25 Jan 10.7 04:25:12 10° SE 04:28:36 16° ESE 04:31:59 10° ENE visible
25 Jan 8.3 06:08:01 10° SSW 06:13:57 68° SE 06:19:48 10° NE visible
26 Jan 10.3 04:33:09 10° SSE 04:37:37 22° ESE 04:42:01 10° ENE visible
26 Jan 7.9 06:17:16 10° SW 06:23:16 88° SE 06:29:11 10° NE visible
27 Jan 9.7 04:41:34 10° S 04:46:41 30° ESE 04:51:44 10° NE visible
27 Jan 7.8 06:26:40 10° SW 06:32:38 73° NW 06:38:32 10° NE visible
28 Jan 9.1 04:50:15 10° S 04:55:49 41° ESE 05:01:18 10° NE visible
29 Jan 10.6 03:17:37 10° SE 03:19:52 12° ESE 03:22:07 10° E visible
29 Jan 8.5 04:59:12 10° SSW 05:05:01 56° ESE 05:10:46 10° NE visible
30 Jan 10.3 03:25:00 10° SSE 03:28:50 18° ESE 03:32:37 10° ENE visible
30 Jan 8.0 05:08:20 10° SSW 05:14:17 75° SE 05:20:10 10° NE visible
31 Jan 9.8 03:33:08 10° SSE 03:37:51 25° ESE 03:42:31 10° ENE visible
31 Jan 7.8 05:17:38 10° SW 05:23:37 85° NW 05:29:32 10° NE visible
01 Feb 9.3 03:41:51 11° S 03:46:58 34° ESE 03:52:10 10° NE visible
01 Feb 7.8 05:27:05 10° SW 05:33:01 66° NW 05:38:52 10° NE visible
02 Feb 8.7 03:52:12 19° S 03:56:07 46° ESE 04:01:42 10° NE visible
02 Feb 8.0 05:36:40 10° WSW 05:42:29 52° NW 05:48:13 10° NE visible
